sat.trackr.live / text

‹ back to catalog

STARLINK-37636

NORAD 69143 · 2026-110V

PAYLOAD ACTIVE UNKNOWN

§ Identity

Operator
Country
US
Launch date
2026-05-20
Launch site
AFWTR
Launch vehicle
Mass (kg)
RCS (m²)

Purposes: comms

External: N2YO · Heavens-Above · Gunter

§ Orbital elements

Epoch: 2026-09-20T00:08:27.753792Z

Period
93.91 min
Inclination
97.2827°
Eccentricity
0.0000979
Mean motion
15.33460352 rev/d
Perigee alt
464.8 km
Apogee alt
466.2 km
Semi-major
6,843.6 km
B*
4.3647e-4
RAAN
98.1257°
Arg perigee
103.3537°
Mean anomaly
256.7815°
Rev number
2,014

§ Raw data

STARLINK-376361 69143U 26110V   26263.00587678  .00014049  00000+0  43647-3 0  99972 69143  97.2827  98.1257 0000979 103.3537 256.7815 15.33460352 20142

JSON: /api/v1/satellites/69143 · /tle

For live sub-satellite position, see the globe view (requires WebGL).

§ Visibility from observer

Set your observer location to see the next 7 days of passes ≥ 10°. The values pass through the URL so the page stays shareable.

No JS? Fill the form by hand. The geolocation button needs JavaScript.